World > North America > United States > North Dakota

Woodbury, North Dakota Regional Weather

Lat: 46.91N, Lon: 98.71W
Wx Zone: NDZ037
Warning NWS WEATHER ALERT - (More Info. Click Here) Warning
Feedback

Woodbury, ND Regional Weather

Expires:201909192000;;035897
ASUS43 KBIS 191902
RWRND 

NORTH DAKOTA REGIONAL WEATHER ROUNDUP
NATIONAL WEATHER SERVICE BISMARCK ND
200 PM CDT THU SEP 19 2019

NOTE: "FAIR" INDICATES FEW OR NO CLOUDS BELOW 12,000 FEET WITH NO
SIGNIFICANT WEATHER AND/OR OBSTRUCTIONS TO VISIBILITY.



NDZ022-023-025-028>030-036>039-047>053-192000-
SOUTHEAST NORTH DAKOTA
  
CITY           SKY/WX    TMP DP  RH WIND       PRES   REMARKS
FARGO          SUNNY     78  62  57 NE7       29.98F                  
JAMESTOWN      SUNNY     78  62  57 E12       29.97F                  
$$ 

  

SKY/WX - Weather  TMP - Temperature  DP - Dew Point  RH - Relative Humidity
WIND - Wind Direction/Speed PRES - Barometric Pressure VSB - Visibility
WCI - Wind Chill Index E13G22 Wind - East Wind 13 mph/Gusts of 22 mph